This is the latest recevied weather packets stored in our database for station/object YD8XVB-13. If no packets are shown the sender has not sent any weather packets the latest 10 day(s).
| Time | Temp. | Humidity | Pressure | Rain* | Wind** | Luminosity | Snow |
|---|---|---|---|---|---|---|---|
| 1777795061 | 32.22° C | 95% | 0 hPa | - | - | 0 W/m² | - |
| 1777794460 | 32.78° C | 95% | 0 hPa | - | - | 0 W/m² | - |
| 1777793558 | 34.44° C | 95% | 0 hPa | - | - | 0 W/m² | - |
| 1777793258 | 33.89° C | 95% | 0 hPa | - | - | 0 W/m² | - |
| 1777792958 | 33.33° C | 95% | 0 hPa | - | - | 0 W/m² | - |
| 1777792658 | 33.89° C | 95% | 0 hPa | - | - | 0 W/m² | - |
| 1777792358 | 33.33° C | 95% | 0 hPa | - | - | 0 W/m² | - |
| 1777792058 | 33.89° C | 95% | 0 hPa | - | - | 0 W/m² | - |
| 1777791758 | 33.33° C | 95% | 0 hPa | - | - | 0 W/m² | - |
| 1777788021 | 37.78° C | 55% | 0 hPa | - | - | 0 W/m² | - |
| 1777787421 | 36.67° C | 11% | 0 hPa | - | - | 0 W/m² | - |
| 1777786820 | 36.67° C | 11% | 0 hPa | - | - | 0 W/m² | - |
| 1777786218 | 36.67° C | 11% | 0 hPa | - | - | 0 W/m² | - |
| 1777785618 | 36.11° C | 11% | 0 hPa | - | - | 0 W/m² | - |
| 1777785018 | 37.78° C | 95% | 0 hPa | - | - | 0 W/m² | - |
| 1777784718 | 37.22° C | 95% | 0 hPa | - | - | 0 W/m² | - |
| 1777784117 | 38.89° C | 13% | 0 hPa | - | - | 0 W/m² | - |
| 1777783816 | 38.33° C | 95% | 0 hPa | - | - | 0 W/m² | - |
| 1777783515 | 37.78° C | 11% | 0 hPa | - | - | 0 W/m² | - |
| 1777783215 | 36.67° C | 11% | 0 hPa | - | - | 0 W/m² | - |
| 1777782915 | 37.22° C | 11% | 0 hPa | - | - | 0 W/m² | - |
| 1777782615 | 37.22° C | 95% | 0 hPa | - | - | 0 W/m² | - |
| 1777782315 | 37.78° C | 95% | 0 hPa | - | - | 0 W/m² | - |
| 1777782014 | 37.78° C | 95% | 0 hPa | - | - | 0 W/m² | - |
| 1777781715 | 37.78° C | 34% | 0 hPa | - | - | 0 W/m² | - |
* Rain since midnight (hover to see other rain measurements)
** Current wind speed in m/s (hover to see current wind gust speed)